,

(GMT )
Al Udeid

Weather History for KQIR - April, 2013

Change the Weather History Date:

Tuesday, April 2, 2013

  Actual Average Record
Temperature  
Mean Temperature 82 °F -  
Max Temperature 97 °F - - ()
Min Temperature 66 °F - - ()
Cooling Degree Days 16    
Growing Degree Days 32 (Base 50)    
Moisture  
Dew Point 48 °F    
Average Humidity 36    
Maximum Humidity 65    
Minimum Humidity 11    
Precipitation  
Precipitation 0.00 in - - ()
Sea Level Pressure  
Sea Level Pressure 29.86 in    
Wind  
Wind Speed 6 mph ()    
Max Wind Speed 16 mph    
Max Gust Speed 22 mph    
Visibility 6.2 miles    
Events      
Averages and records for this station are not official NWS values.
T = Trace of Precipitation, MM = Missing Value Source: Averaged Metar Reports

Daily Weather History Graph

Daily Weather History Graph

Search for Another Location

Airport or City:

Trip Planner

Search our weather history database for the weather conditions in past years. The results will help you decide how hot, cold, wet, or windy it might be!

Date:

Astronomy

Apr. 02, 2013 Rise Set
Actual Time 5:25 AM +03 5:51 PM +03
Civil Twilight 5:02 AM +03 6:14 PM +03
Nautical Twilight 4:35 AM +03 6:41 PM +03
Astronomical Twilight 4:08 AM +03 7:08 PM +03
Moon No Moon Rise 10:15 AM +03 (4/2)
Length of Visible Light 13h 12m
Length of Day
12h 26m
Waning Gibbous, 59% of the Moon is Illuminated
Apr 2
Waning Gibbous
Apr 3
Last Quarter
Apr 10
New
Apr 18
First Quarter
Apr 25
Full

Hourly Weather History & Observations

Time (+03) Temp. Heat Index Dew Point Humidity Pressure Visibility Wind Dir Wind Speed Gust Speed Precip Events Conditions
12:55 AM 73.0 °F - 41.0 °F 31% 29.84 in 6.2 mi North 6.9 mph - N/A   Clear
1:55 AM 71.6 °F - 40.6 °F 33% 29.83 in 6.2 mi NW 5.8 mph - N/A   Clear
2:55 AM 69.3 °F - 40.8 °F 36% 29.83 in 6.2 mi West 6.9 mph - N/A   Clear
3:55 AM 67.8 °F - 41.7 °F 39% 29.84 in 6.2 mi WNW 4.6 mph - N/A   Clear
4:55 AM 66.9 °F - 43.3 °F 42% 29.85 in 6.2 mi West 5.8 mph - N/A   Clear
5:55 AM 66.6 °F - 45.7 °F 47% 29.87 in 6.2 mi West 5.8 mph - N/A   Clear
6:55 AM 71.2 °F - 50.7 °F 48% 29.88 in 6.2 mi West 6.9 mph - N/A   Clear
7:55 AM 78.8 °F - 52.9 °F 40% 29.91 in 6.2 mi WNW 6.9 mph - N/A   Clear
8:55 AM 85.6 °F - 49.8 °F 29% 29.92 in 6.2 mi West 6.9 mph - N/A   Partly Cloudy
9:55 AM 90.3 °F - 45.0 °F 21% 29.91 in 6.2 mi Variable 3.5 mph - N/A   Mostly Cloudy
10:55 AM 93.2 °F - 41.9 °F 17% 29.90 in 6.2 mi NW 4.6 mph - N/A   Mostly Cloudy
11:55 AM 95.2 °F - 38.3 °F 14% 29.88 in 6.2 mi WNW 10.4 mph - N/A   Scattered Clouds
12:55 PM 96.4 °F - 36.7 °F 12% 29.85 in 6.2 mi NW 8.1 mph - N/A   Scattered Clouds
1:55 PM 97.3 °F - 37.4 °F 12% 29.83 in 6.2 mi North 11.5 mph - N/A   Partly Cloudy
2:55 PM 97.2 °F - 35.1 °F 11% 29.82 in 6.2 mi NW 5.8 mph - N/A   Clear
3:55 PM 90.5 °F - 50.7 °F 26% 29.83 in 6.2 mi East 16.1 mph 21.9 mph N/A   Clear
4:55 PM 87.4 °F - 51.4 °F 29% 29.83 in 6.2 mi East 15.0 mph - N/A   Clear
5:55 PM 84.0 °F - 52.7 °F 34% 29.84 in 6.2 mi East 10.4 mph - N/A   Clear
6:55 PM 81.3 °F 81.0 °F 55.2 °F 41% 29.84 in 6.2 mi East 11.5 mph - N/A   Clear
7:55 PM 79.0 °F - 55.6 °F 44% 29.85 in 6.2 mi East 10.4 mph - N/A   Clear
8:55 PM 76.6 °F - 60.3 °F 57% 29.86 in 6.2 mi East 6.9 mph - N/A   Clear
9:55 PM 75.6 °F - 61.5 °F 62% 29.86 in 6.2 mi East 5.8 mph - N/A   Clear
10:55 PM 75.0 °F - 61.5 °F 63% 29.84 in 6.2 mi SE 4.6 mph - N/A   Clear
11:55 PM 73.6 °F - 61.3 °F 65% 29.83 in 6.2 mi East 4.6 mph - N/A   Clear